This demonstration page uses our WeatherBlox Daily Observations layout. Learn more.

Left ArrowRight Arrow

38.20091, -84.87328

Hourly Observations for September 30, 2021

Temp ( °F °C ) Dew Point ( °F °C ) Humidity (%) Winds ( mph kmh ) Pressure ( in mb ) Visibility ( mi km ) Precip ( " mm )
12:53 am 00:53 Clear 66 18.9 64 17.8 93 93 Calm 30.07 1018 7 11 0.00 0.00
1:53 am 01:53 Clear with Mist and Fog 66 18.9 64 17.8 93 93 Calm 30.08 1019 3 5 0.00 0.00
2:53 am 02:53 Clear with Mist and Fog 64 17.8 63 17.2 96 96 Calm 30.09 1019 6 10 0.00 0.00
3:53 am 03:53 Clear with Mist and Fog 64 17.8 62 16.7 93 93 Calm 30.08 1019 6 10 0.00 0.00
4:53 am 04:53 Clear with Mist and Fog 64 17.8 63 17.2 96 96 ENE 5 7 30.08 1019 4 6 0.00 0.00
5:53 am 05:53 Clear 63 17.2 61 16.1 93 93 Calm 30.09 1019 7 11 0.00 0.00
6:53 am 06:53 Clear with Mist and Fog 63 17.2 61 16.1 93 93 Calm 30.11 1020 6 10 0.00 0.00
7:53 am 07:53 Sunny 63 17.2 61 16.1 93 93 Calm 30.13 1020 7 11 0.00 0.00
8:53 am 08:53 Sunny 66 18.9 61 16.1 84 84 Calm 30.14 1021 9 14 0.00 0.00
9:53 am 09:53 Sunny 68 20 61 16.1 78 78 Calm 30.15 1021 10 16 0.00 0.00
10:53 am 10:53 Sunny 71 21.7 63 17.2 76 76 Calm 30.15 1021 10 16 0.00 0.00
11:53 am 11:53 Sunny 77 25 65 18.3 66 66 E 6 9 30.16 1021 10 16 0.00 0.00
12:53 pm 12:53 Sunny 79 26.1 65 18.3 62 62 VRB 5 7 30.15 1021 10 16 0.00 0.00
1:53 pm 13:53 Sunny 81 27.2 62 16.7 53 53 NNE 5 7 30.14 1021 10 16 0.00 0.00
2:53 pm 14:53 Sunny 82 27.8 59 15 46 46 ESE 5 7 30.13 1020 10 16 0.00 0.00
3:53 pm 15:53 Sunny 84 28.9 55 12.8 37 37 Calm 30.11 1020 10 16 0.00 0.00
4:53 pm 16:53 Sunny 83 28.3 56 13.3 40 40 VRB 6 9 30.12 1020 10 16 0.00 0.00
5:53 pm 17:53 Sunny 80 26.7 53 11.7 39 39 ENE 6 9 30.13 1020 10 16 0.00 0.00
6:53 pm 18:53 Sunny 76 24.4 54 12.2 47 47 NE 5 7 30.14 1021 10 16 0.00 0.00
7:53 pm 19:53 Clear 68 20 55 12.8 63 63 ENE 5 7 30.15 1021 10 16 0.00 0.00
8:53 pm 20:53 Clear 64 17.8 57 13.9 78 78 Calm 30.16 1021 10 16 0.00 0.00
9:53 pm 21:53 Clear 64 17.8 57 13.9 78 78 Calm 30.17 1022 10 16 0.00 0.00
10:53 pm 22:53 Clear 63 17.2 57 13.9 81 81 ENE 5 7 30.18 1022 10 16 0.00 0.00
11:53 pm 23:53 Clear 63 17.2 56 13.3 78 78 E 5 7 30.18 1022 10 16 0.00 0.00

Powered by AerisWeather